Boulder, CO (80301)

2:13 PM MST on February 01, 2015 (GMT -0700)
63rd St & Jay Rd | Change Station
CLOSE
Current Station
Personal Weather Station
Location: Boulder, CO
Elevation: 5202 ft
Nearby Weather Stations

Elev 5202 ft 40.06 °N, 105.21 °W | Updated 1 minute ago

Scattered Clouds
Scattered Clouds
30.4 °F
Feels Like 30 °F
N
0.0
Wind Variable Wind from ESE
Gusts 3.0 mph

Today
High -- | Low -- °F
--% Chance of Precip.
Yesterday
High -- | Low -- °F
Precip. -- in
7:09 AM 5:19 PM
Waxing Gibbous, 96% visible
Pressure 30.14 in
Visibility 10.0 miles
Clouds Scattered Clouds 1600 ft
Scattered Clouds 3100 ft
Windchill 30 °F
Dew Point 20 °F
Humidity 66%
Rainfall 0.00 in
Snow Depth Not available.
UV 3 out of 12
Pollen .30 out of 12
Air Quality Not available.
Flu Activity Not available.
METAR KBDU 012036Z AUTO 11003KT 10SM SCT016 SCT031 M01/M05 A3014 RMK AO2

More Conditions Fewer Conditions

Pressure 30.14 in
Visibility 10.0 miles
Clouds Scattered Clouds 1600 ft
Scattered Clouds 3100 ft
Windchill 30 °F
Dew Point 20 °F
Humidity 66%
Rainfall 0.00 in
Snow Depth Not available.
UV 3 out of 12
Pollen .30 out of 12
Air Quality Not available.
Flu Activity Not available.
METAR KBDU 012036Z AUTO 11003KT 10SM SCT016 SCT031 M01/M05 A3014 RMK AO2

More Conditions Fewer Conditions

10-Day Weather Forecast

Almanac

Astronomy

Feb. 01, 2015 Rise Set
Actual Time
Civil Twilight
Nautical Twilight
Astronomical Twilight
Moon
Length of Visible Light
Length of Day
Tomorrow will be .
, % of the Moon is Illuminated

Today's Extremes

State Highs State Lows

Community

WunderPhotos

Upload Photos

1,792,535 photos uploaded!

WunderBlogs® & News

Nearby

Air Quality

  Air Quality AQ Index Pollutant
Not available.

Snow Depth

Station Depth Elevation

Earthquake Activity

City Distance Mag. Time & Date
Minimum magnitude displayed is 2.5.

Coastal Water Temperatures

Place Temperature

Nearby Weather Stations